Location: G�kdere
(37.0328°N, 30.9000°E)
Time: 04:33:13
(UTC+00:00)

CSL-04 Rocket - Pass Details

Date: 03 March 2021
Orbit: 805 x 861 km, 98.9° (Epoch: 20 April)

Event Time Altitude Azimuth Distance (km) Brightness Sun altitude
Rises 16:37:36 0° 148° (SSE) 3,423 6.6 -9.8°
Reaches altitude 10° 16:40:04 10° 142° (SE) 2,490 5.8 -10.3°
Maximum altitude 16:45:18 45° 71° (ENE) 1,148 4.0 -11.3°
Drops below altitude 10° 16:50:32 10° 360° (N) 2,488 6.2 -12.4°
Sets 16:52:59 0° 354° (N) 3,421 7.0 -12.9°
